Location: Unspecified
(0.0000°N, 0.0000°E)
Time: 02:59:46
(UTC+00:00)

ACS3 Solar Sail - Pass Details

Date: 15 November 2025
Orbit: 887 x 1000 km, 97.3° (Epoch: 14 December)

Event Time Altitude Azimuth Distance (km) Brightness Sun altitude
Exits shadow 02:47:01 15° 173° (S) 2,414 4.1 -41.6°
Drops below altitude 10° 02:48:01 10° 176° (S) 2,774 4.4 -41.3°
Sets 02:50:36 0° 181° (S) 3,736 5.1 -40.7°
